576  
ASUS41 KLWX 141211  
RWRLWX  
 
REGIONAL WEATHER ROUNDUP  
NATIONAL WEATHER SERVICE BALTIMORE MD/WASHINGTON DC  
700 AM EST THU DEC 14 2017  
 
NOTE: "FAIR" INDICATES FEW OR NO CLOUDS BELOW 12,000 FEET  
WITH NO SIGNIFICANT WEATHER AND/OR S TO VISIBILITY
.  
TC=TEMPERATURE CELSIUS  
 
* =NON NWS SITE. STATION DOES NOT REPORT PRECIPITATION (E.G. RAIN,  
SNOW, ETC.), THUNDER, OR FOG.
 
 
DCZ001-MDZ009-015-VAZ040>042-051-053>054-141300-  
WASHINGTON METRO  
 
CITY SKY/WX TMP DP RH WIND PRES REMARKS
 
WASHINGTON NAT CLOUDY 37 18 46 SW7 29.62R  
DULLES CLOUDY 29 18 63 SW3 29.61R  
ANDREWS AFB CLOUDY 37 18 46 W10 29.60R  
FT BELVOIR CLOUDY 37 18 47 NW3 29.62R  
QUANTICO CLOUDY 40 20 44 NW7 29.64R  
COLLEGE PARK* CLOUDY 36 17 46 CALM 29.60R  
LEESBURG* MOCLDY 32 21 64 SW3 29.62R  
MANASSAS* CLOUDY 34 18 52 W3 29.63R  
GAITHERSBURG* CLOUDY 32 16 51 SW3 29.60R  
 

 
 
MDZ006>007-011-014-141300-  
BALTIMORE METRO  
 
CITY SKY/WX TMP DP RH WIND PRES REMARKS
 
BWI AIRPORT FLURRIES 36 20 52 W9 29.60R WCI 29  
MD SCIENCE CTR N/A 38 20 48 MISG 29.60R  
MARTIN STATE FLURRIES 37 25 60 SW6 29.60R  
ANNAPOLIS CLOUDY 38 21 50 W7 29.60R  
FORT MEADE* CLOUDY 36 19 51 W9 29.62R WCI 29  
 

 
 
MDZ012-015-019>023-141300-  
MARYLAND EASTERN SHORE  
 
CITY SKY/WX TMP DP RH WIND PRES REMARKS
 
OCEAN CITY CLEAR 35 27 72 SW8 29.60R WCI 29  
SALISBURY PTCLDY 38 26 62 SW13 29.58R  
BAY BRIDGE AP* CLOUDY 39 23 52 W13G22 29.60R  
CAMBRIDGE* CLOUDY 39 23 52 SW7 29.58R  
EASTON* MOCLDY 41 23 48 W9 29.63R  
 

 
 
MDZ017>025-141300-  
SOUTHERN MARYLAND  
 
CITY SKY/WX TMP DP RH WIND PRES REMARKS
 
PATUXENT RIVER MOCLDY 40 21 46 SW14G22 29.59R  
ST INIGOES CLOUDY 41 23 48 SW18G29 29.58R  
LEONARDTOWN* CLOUDY 37 23 56 SW13G20 29.60R  
 

 
 
MDZ003>005-141300-  
NORTH CENTRAL MARYLAND  
 
CITY SKY/WX TMP DP RH WIND PRES REMARKS
 
FREDERICK* CLOUDY 32 19 59 CALM 29.62R  
HAGERSTOWN APT CLOUDY 28 24 85 CALM 29.59R  
WESTMINSTER* CLOUDY 32 21 64 SW8 29.56R WCI 25  
 

 
 
MDZ501>502-141300-  
WESTERN MARYLAND  
 
CITY SKY/WX TMP DP RH WIND PRES REMARKS
 
OAKLAND* CLOUDY 23 21 93 W15G29 29.53R WCI 10  
CUMBERLAND* MOCLDY 34 30 86 W16G24 29.67R WCI 23  
 

 
 
VAZ025>031-141300-  
SHENANDOAH VALLEY  
 
CITY SKY/WX TMP DP RH WIND PRES REMARKS
 
WINCHESTER* CLOUDY 37 25 60 W17G26 29.59R WCI 28  
FRONT ROYAL* CLOUDY 41 28 60 MISG 29.58R  
LURAY* PTCLDY 39 32 75 W12G23 29.60R  
NEW MARKET* CLOUDY 36 30 78 S3 29.60R  
STAUNTON* CLOUDY 40 25 53 W18G38 29.60R  
WAYNESBORO* CLOUDY 42 23 46 W14G30 29.59R  
 

 
 
WVZ021-048>050-054>055-141300-  
EASTERN WEST VIRGINIA PANHANDLE  
 
CITY SKY/WX TMP DP RH WIND PRES REMARKS
 
MARTINSBURG PTCLDY 37 26 64 W18G38 29.58R WCI 27  
PETERSBURG* MIX PCPN 36 23 60 W23G37 29.62R WCI 24  
 

 
 
VAZ036>039-050-141300-  
CENTRAL FOOTHILLS  
 
CITY SKY/WX TMP DP RH WIND PRES REMARKS
 
CHARLOTTESVILL CLOUDY 34 19 54 CALM 29.59R  
CULPEPER* CLOUDY 34 18 52 CALM 29.63R  
ORANGE* MOCLDY 32 19 59 SW6 29.60R  
GORDONSVILLE* CLOUDY 34 19 54 SW6 29.61R  
WARRENTON* CLOUDY 35 16 45 W3 29.61R  
 

 
 
VAZ055>057-141300-  
NORTH AND CENTRAL PIEDMONT  
 
CITY SKY/WX TMP DP RH WIND PRES REMARKS
 
FREDERICKSBRG* CLOUDY 39 22 50 SW9 29.61R  
STAFFORD* MOCLDY 37 19 47 W8 29.66R  
 

 
 
NCZ024-NYZ072-PAZ021-071-VAZ022-071-141300-  
OTHER REGIONAL OBSERVATIONS  
 
CITY SKY/WX TMP DP RH WIND PRES REMARKS
 
NEW YORK CITY LGT SNOW 27 25 92 NE3 29.59R FOG  
PHILADELPHIA CLOUDY 32 27 81 W6 29.58R  
PITTSBURGH FLURRIES 25 19 78 NW12 29.72R WCI 14  
ROANOKE PTCLDY 45 24 43 W23G35 29.66R  
RICHMOND PTCLDY 37 20 50 SW12 29.65R  
RALEIGH CLEAR 31 20 63 SW7 29.76R  
 

 
 
ANZ530>537-141300-  
MARINE OBSERVATIONS  
 
STATION/POSITION TIME TEMP WIND PRES
 
AIR SEA DIR/SP/G  
(UTC) (F) (DEG/KT/KT) (MB)  
THOMAS PT LIGHT 1200 39 44 260/ 17/ 20 N/A  
BALT KEY BRIDGE 1148 38 240/ 10/ 12 1002.1R  
COVE POINT 1148 40 270/ 13/ 20 1002.3R  
LEWISETTA 1148 40 41 240/ 15/ 21 1002.3R  
SOLOMONS ISLAND 1130 41 45 240/ 19/ 21 1001.2R  
PINEY POINT 1148 250/ 11/ 15 N/A  
 

 
 
 
 
CLICK HERE TO GO TO PREVIOUS BULLETINS.

The Nexlab VA Page
The Nexlab MD Page
The Nexlab WV Page Main Text Page